Location: Newark
(42.9858°N, 0.6717°E)
Time: 10:56:32
(UTC+00:00)

OTV 5 (USA 277) - Visible Passes

Search period start: 15 October 2019 00:00
Search period end: 25 October 2019 00:00
Orbit: 310 x 324 km, 54.5° (Epoch: 08 October)

Date Brightness Start Highest point End Pass type
(mag) Time Alt. Az. Time Alt. Az. Time Alt. Az.
15 Oct ? 05:25:02 10° NNW 05:27:10 20° NNE 05:29:17 10° ENE visible
16 Oct ? 04:07:20 10° NNE 04:07:20 10° NNE 04:07:35 10° NNE visible
16 Oct ? 05:39:17 10° NW 05:41:54 38° NNE 05:44:30 10° ESE visible
17 Oct ? 04:21:37 15° NNE 04:21:51 15° NNE 04:23:37 10° ENE visible
18 Oct ? 04:36:01 24° N 04:36:39 26° NNE 04:39:03 10° E visible
19 Oct ? 04:50:31 38° NNW 04:51:19 62° NE 04:54:02 10° ESE visible
20 Oct ? 05:05:08 34° W 05:05:51 43° SW 05:08:27 10° SSE visible
21 Oct ? 05:19:54 16° WSW 05:20:13 16° SW 05:22:00 10° S visible
